Regional Weather Roundup
Issued by NWS Spokane, WA

Home | Current Version | Previous Version | Text Only | Print | Product List | Glossary On
Versions: 1 2 3 4 5 6 7 8 9 10 11 12 13 14 15 16 17 18 19 20 21 22 23 24 25 26 27 28 29 30 31 32 33 34 35 36 37 38 39 40 41 42 43 44 45 46 47 48 49 50
716
NZUS01 KOTX 210525
RWROTX

Eastern Washington/Northern Idaho Roundup
National Weather Service, Spokane WA
1000 PM PDT SUN AUG 20 2017

Note: "fair" indicated few or no clouds below 12,000 feet with no
significant weather and/or obstructions to visibility.

...Northeast Washington and Northern Idaho Panhandle...

CITY           SKY/WX    TMP DP  RH WIND       PRES   REMARKS
Spokane Intl   PTCLDY    67  37  33 SW7       30.06R
Spokane Downto CLEAR     66  40  38 CALM      30.05R
Coeur d Alene  CLEAR     64  41  42 CALM      30.07R
Deer Park      CLEAR     57  36  45 SE5       30.06R
Sandpoint      CLEAR     55  43  62 CALM      30.06R
Bonners Ferry  FAIR      64  45  48 N7        30.08R

...Southeast Washington and southern Idaho Panhandle...

CITY           SKY/WX    TMP DP  RH WIND       PRES   REMARKS
Walla Walla    PTCLDY    69  44  40 E7        30.00S
Pullman/Moscow PTCLDY    60  39  45 CALM      30.09R
Lewiston       PTCLDY    73  42  32 W6        30.02R
Lowell           N/A     64  48  56 CALM      30.04R
Grangeville    FAIR      59  34  38 CALM      30.10R

...Columbia Basin...

CITY           SKY/WX    TMP DP  RH WIND       PRES   REMARKS
Ephrata        CLEAR     66  41  40 CALM      30.00R
Moses Lake     CLEAR     69  49  48 E7        30.01R
Pasco          CLEAR     66  54  65 CALM      29.98R
Richland       CLEAR     66  49  54 CALM      29.98R
Hermiston      CLEAR     67  48  50 S6        29.97S
Pendleton      CLEAR     68  38  33 SE5       30.01S

...East Slopes Cascades...

CITY           SKY/WX    TMP DP  RH WIND       PRES   REMARKS
The Dalles     CLEAR     75  55  49 NW16G24   29.98R
Yakima         CLEAR     75  48  38 CALM      30.02R
Ellensburg     CLEAR     69  49  48 NW15G23   30.05R
Stampede Pass  CLEAR     53  48  83 SW7       30.20S
Wenatchee      CLEAR     74  44  34 W9        30.01R
Omak           MOCLDY    75  42  30 N14       30.01R
Sunnyside        N/A     57  51  79 CALM      30.00R

...Southern British Columbia...

CITY           SKY/WX    TMP DP  RH WIND       PRES   REMARKS
Penticton      PTCLDY    68  48  49 N6        30.06R
Cranbrook      CLEAR     59  39  47 N9        30.10R
Osoyoos          N/A     75  50  41 NW7         N/A
Creston          N/A     66  48  52 NW9         N/A

...Western Montana...

CITY           SKY/WX    TMP DP  RH WIND       PRES   REMARKS
Kalispell      CLEAR     56  40  55 CALM      30.06R
Libby            N/A     63  39  42 CALM      30.05R
Missoula       PTCLDY    64  36  35 NW5       30.08R

...Neighboring Cities...

CITY           SKY/WX    TMP DP  RH WIND       PRES   REMARKS
Seattle        PTCLDY    68  55  63 NE8       30.13R
Portland       PTCLDY    70  58  65 NW12      30.05S
Boise          MOCLDY    72  37  28 CALM      29.99S
Great Falls    CLOUDY    65  30  27 SE6       30.07R
Calgary        PTCLDY    52  41  66 N6        30.11R



USA.gov is the U.S. government's official web portal to all federal, state and local government web resources and services.